EDT,Max TemperatureF,Mean TemperatureF,Min TemperatureF,Max Dew PointF,MeanDew PointF,Min DewpointF,Max Humidity, Mean Humidity, Min Humidity, Max Sea Level PressureIn, Mean Sea Level PressureIn, Min Sea Level PressureIn, Max VisibilityMiles, Mean VisibilityMiles, Min VisibilityMiles, Max Wind SpeedMPH, Mean Wind SpeedMPH, Max Gust SpeedMPH,PrecipitationIn, CloudCover, Events, WindDirDegrees
2012-10-1,64,50,37,51,45,37,97,82,46,29.98,29.93,29.88,10,10,10,9,2,,0.00,0,,207
2012-10-2,60,52,44,53,50,44,97,89,73,30.00,29.94,29.88,10,10,10,8,2,,0.00,4,,40
2012-10-3,69,55,41,59,51,39,99,85,34,30.04,30.01,29.99,10,8,2,8,2,,0.00,5,Rain,70
2012-10-4,72,65,58,61,56,44,98,79,54,30.02,29.94,29.87,10,8,3,21,6,32,0.00,6,Rain,221
2012-10-5,57,52,46,43,37,30,67,61,51,29.98,29.94,29.89,10,10,10,25,18,33,0.00,7,,257
2012-10-6,46,44,41,38,35,29,85,69,52,30.13,29.98,29.85,10,9,5,24,17,33,0.00,7,Rain,308
2012-10-7,45,40,36,41,35,29,97,78,59,30.13,30.09,30.05,10,10,4,12,8,18,0.00,6,Rain,193
2012-10-8,57,47,37,35,33,30,84,58,38,30.06,30.01,29.94,10,10,10,18,10,28,0.00,4,,184
2012-10-9,57,50,44,50,42,31,92,72,46,29.92,29.81,29.70,10,10,7,23,12,36,0.00,7,Rain,214
2012-10-10,46,44,41,39,33,23,84,66,46,30.08,29.88,29.74,10,10,4,28,16,34,0.00,8,Rain,286
2012-10-11,47,44,40,43,34,26,95,69,44,30.20,30.01,29.87,10,9,3,24,13,33,0.00,7,Rain,256
2012-10-12,48,42,36,33,30,25,86,62,41,30.46,30.37,30.21,10,10,10,20,10,31,0.00,3,Rain,308
2012-10-13,52,43,34,52,38,28,98,85,64,30.34,30.05,29.78,10,8,2,14,7,20,0.00,6,Rain,156
2012-10-14,53,50,47,53,51,45,99,97,93,29.80,29.57,29.33,10,6,2,24,7,40,0.00,8,Rain,54
2012-10-15,48,46,43,45,39,33,93,77,62,29.95,29.76,29.45,10,9,2,28,20,38,0.00,8,Rain,323
2012-10-16,56,44,33,44,39,33,99,77,57,29.95,29.83,29.64,10,10,5,13,4,18,0.00,3,Rain,154
2012-10-17,74,62,50,54,48,40,78,62,41,29.64,29.51,29.44,10,10,10,15,10,24,0.00,3,Rain,150
2012-10-18,62,54,46,55,49,39,94,80,69,29.62,29.41,29.28,10,10,3,24,12,31,0.00,7,Rain,153
2012-10-19,52,48,44,46,42,39,95,79,65,29.63,29.61,29.58,10,10,7,13,7,17,0.00,7,Rain,116
2012-10-20,57,50,42,48,46,42,99,87,65,29.87,29.72,29.62,10,9,0,10,5,,0.00,3,Fog-Rain,300
2012-10-21,59,51,43,52,46,42,99,84,54,30.05,30.00,29.87,10,8,0,14,7,18,0.00,2,Fog,227
2012-10-22,63,53,43,53,47,41,97,79,60,30.07,30.03,29.99,10,10,10,12,5,,0.00,6,,91
2012-10-23,63,58,53,52,50,47,88,78,63,30.02,30.00,29.99,10,10,10,17,11,26,0.00,7,,101
2012-10-24,69,61,53,62,56,50,97,86,70,30.02,29.96,29.87,10,10,5,14,9,17,0.00,7,Rain,122
2012-10-25,78,64,49,62,59,47,95,70,48,29.86,29.72,29.61,10,10,4,28,13,45,0.00,3,Rain,189
2012-10-26,49,46,42,48,34,30,94,67,57,30.30,30.17,29.81,10,10,3,24,16,30,0.00,8,Rain,278
2012-10-27,44,42,41,32,29,24,71,59,50,30.33,30.30,30.28,10,10,10,12,6,16,0.00,8,Rain,351
2012-10-28,45,42,40,32,28,24,69,57,49,30.37,30.34,30.31,10,10,10,16,11,23,0.00,4,,18
2012-10-29,45,42,39,32,27,24,64,55,46,30.32,30.25,30.07,10,10,10,29,17,40,0.00,0,,15
2012-10-30,41,39,37,37,33,26,90,80,55,30.06,29.84,29.72,10,9,4,32,26,44,0.00,8,Rain,3
2012-10-31,41,40,38,38,36,35,92,84,77,29.72,29.69,29.67,10,8,4,24,20,34,0.00,8,Rain,346